Time,TemperatureF,DewpointF,PressureIn,WindDirection,WindDirectionDegrees,WindSpeedMPH,WindSpeedGustMPH,Humidity,HourlyPrecipIn,Conditions,Clouds,dailyrainin,SoftwareType,DateUTC
2013-01-18 00:03:00,27.0,21.0,-100.00,NW,310,14.0,27.0,79,-99.99,,,-99.99,,2013-01-18 05:03:00,
2013-01-18 00:12:00,26.0,21.0,-100.00,WNW,300,13.0,26.0,79,-99.99,,,-99.99,,2013-01-18 05:12:00,
2013-01-18 00:22:00,26.0,20.0,-100.00,NW,315,12.0,28.0,79,-99.99,,,-99.99,,2013-01-18 05:22:00,
2013-01-18 00:33:00,25.0,19.0,-100.00,NW,320,12.0,24.0,77,-99.99,,,-99.99,,2013-01-18 05:33:00,
2013-01-18 00:42:00,25.0,18.0,-100.00,WNW,295,15.0,24.0,74,-99.99,,,-99.99,,2013-01-18 05:42:00,
2013-01-18 00:52:00,25.0,17.0,-100.00,NW,315,19.0,28.0,72,-99.99,,,-99.99,,2013-01-18 05:52:00,
2013-01-18 01:02:00,24.0,16.0,-100.00,WNW,295,14.0,24.0,69,-99.99,,,-99.99,,2013-01-18 06:02:00,
2013-01-18 01:12:00,24.0,14.0,-100.00,WNW,295,16.0,26.0,66,-99.99,,,-99.99,,2013-01-18 06:12:00,
2013-01-18 01:22:00,24.0,15.0,-100.00,WNW,285,9.0,25.0,67,-99.99,,,-99.99,,2013-01-18 06:22:00,
2013-01-18 01:33:00,23.0,14.0,-100.00,NW,315,14.0,28.0,67,-99.99,,,-99.99,,2013-01-18 06:33:00,
2013-01-18 01:43:00,23.0,13.0,-100.00,WNW,290,13.0,21.0,66,-99.99,,,-99.99,,2013-01-18 06:43:00,
2013-01-18 01:52:00,23.0,14.0,-100.00,WNW,285,9.0,24.0,67,-99.99,,,-99.99,,2013-01-18 06:52:00,
2013-01-18 02:02:00,23.0,14.0,-100.00,WNW,285,12.0,22.0,67,-99.99,,,-99.99,,2013-01-18 07:02:00,
2013-01-18 02:12:00,23.0,13.0,-100.00,NW,325,12.0,22.0,66,-99.99,,,-99.99,,2013-01-18 07:12:00,
2013-01-18 02:22:00,22.0,12.0,-100.00,West,265,12.0,25.0,63,-99.99,,,-99.99,,2013-01-18 07:22:00,
2013-01-18 02:32:00,23.0,12.0,-100.00,WNW,285,6.0,18.0,62,-99.99,,,-99.99,,2013-01-18 07:32:00,
2013-01-18 02:42:00,22.0,11.0,-100.00,WNW,285,11.0,19.0,62,-99.99,,,-99.99,,2013-01-18 07:42:00,
2013-01-18 02:52:00,23.0,12.0,-100.00,NW,305,7.0,17.0,62,-99.99,,,-99.99,,2013-01-18 07:52:00,
2013-01-18 03:02:00,23.0,12.0,-100.00,NW,305,7.0,17.0,62,-99.99,,,-99.99,,2013-01-18 08:02:00,
2013-01-18 03:12:00,23.0,11.0,-100.00,WNW,290,10.0,19.0,61,-99.99,,,-99.99,,2013-01-18 08:12:00,
2013-01-18 03:22:00,23.0,11.0,-100.00,NW,305,11.0,22.0,61,-99.99,,,-99.99,,2013-01-18 08:22:00,
2013-01-18 03:32:00,23.0,11.0,-100.00,WNW,300,10.0,19.0,61,-99.99,,,-99.99,,2013-01-18 08:32:00,
2013-01-18 03:42:00,23.0,12.0,-100.00,NW,325,9.0,17.0,62,-99.99,,,-99.99,,2013-01-18 08:42:00,
2013-01-18 03:52:00,23.0,12.0,-100.00,WNW,295,9.0,16.0,63,-99.99,,,-99.99,,2013-01-18 08:52:00,
2013-01-18 04:03:00,23.0,13.0,-100.00,NW,315,7.0,16.0,64,-99.99,,,-99.99,,2013-01-18 09:03:00,
2013-01-18 04:12:00,23.0,13.0,-100.00,WNW,300,8.0,16.0,64,-99.99,,,-99.99,,2013-01-18 09:12:00,
2013-01-18 04:22:00,23.0,13.0,-100.00,NW,305,6.0,13.0,65,-99.99,,,-99.99,,2013-01-18 09:22:00,
2013-01-18 04:33:00,23.0,13.0,-100.00,NW,305,6.0,13.0,65,-99.99,,,-99.99,,2013-01-18 09:33:00,
2013-01-18 04:42:00,23.0,13.0,-100.00,WNW,295,5.0,12.0,66,-99.99,,,-99.99,,2013-01-18 09:42:00,
2013-01-18 04:52:00,23.0,14.0,-100.00,NW,305,7.0,16.0,66,-99.99,,,-99.99,,2013-01-18 09:52:00,
2013-01-18 05:03:00,23.0,14.0,-100.00,WNW,300,6.0,13.0,67,-99.99,,,-99.99,,2013-01-18 10:03:00,
2013-01-18 05:12:00,23.0,14.0,-100.00,NW,305,5.0,12.0,67,-99.99,,,-99.99,,2013-01-18 10:12:00,
2013-01-18 05:22:00,23.0,14.0,-100.00,WNW,290,9.0,17.0,67,-99.99,,,-99.99,,2013-01-18 10:22:00,
2013-01-18 05:32:00,24.0,14.0,-100.00,NW,320,10.0,15.0,67,-99.99,,,-99.99,,2013-01-18 10:32:00,
2013-01-18 05:42:00,24.0,15.0,-100.00,NW,305,8.0,14.0,67,-99.99,,,-99.99,,2013-01-18 10:42:00,
2013-01-18 05:52:00,24.0,15.0,-100.00,WNW,295,9.0,13.0,68,-99.99,,,-99.99,,2013-01-18 10:52:00,
2013-01-18 06:02:00,24.0,15.0,-100.00,WNW,300,6.0,13.0,68,-99.99,,,-99.99,,2013-01-18 11:02:00,
2013-01-18 06:12:00,24.0,15.0,-100.00,WNW,285,7.0,13.0,69,-99.99,,,-99.99,,2013-01-18 11:12:00,
2013-01-18 06:23:00,24.0,16.0,-100.00,NW,315,7.0,10.0,70,-99.99,,,-99.99,,2013-01-18 11:23:00,
2013-01-18 06:32:00,24.0,16.0,-100.00,NW,315,7.0,10.0,70,-99.99,,,-99.99,,2013-01-18 11:32:00,
2013-01-18 06:42:00,24.0,16.0,-100.00,NW,315,4.0,10.0,71,-99.99,,,-99.99,,2013-01-18 11:42:00,
2013-01-18 06:52:00,24.0,17.0,-100.00,WSW,240,4.0,7.0,72,-99.99,,,-99.99,,2013-01-18 11:52:00,
2013-01-18 07:03:00,24.0,17.0,-100.00,WNW,285,4.0,7.0,72,-99.99,,,-99.99,,2013-01-18 12:03:00,
2013-01-18 07:12:00,24.0,17.0,-100.00,SW,225,4.0,10.0,72,-99.99,,,-99.99,,2013-01-18 12:12:00,
2013-01-18 07:22:00,25.0,18.0,-100.00,SW,215,7.0,9.0,73,-99.99,,,-99.99,,2013-01-18 12:22:00,
2013-01-18 07:33:00,24.0,18.0,-100.00,WSW,245,5.0,9.0,75,-99.99,,,-99.99,,2013-01-18 12:33:00,
2013-01-18 07:43:00,24.0,18.0,-100.00,SW,225,9.0,12.0,78,-99.99,,,-99.99,,2013-01-18 12:43:00,
2013-01-18 07:52:00,24.0,19.0,-100.00,SW,220,7.0,9.0,81,-99.99,,,-99.99,,2013-01-18 12:52:00,
2013-01-18 08:03:00,24.0,20.0,-100.00,SW,220,7.0,11.0,83,-99.99,,,-99.99,,2013-01-18 13:03:00,
2013-01-18 08:12:00,24.0,20.0,-100.00,SW,230,4.0,9.0,83,-99.99,,,-99.99,,2013-01-18 13:12:00,
2013-01-18 08:23:00,24.0,20.0,-100.00,SW,220,6.0,8.0,83,-99.99,,,-99.99,,2013-01-18 13:23:00,
2013-01-18 08:33:00,24.0,20.0,-100.00,SSW,210,7.0,9.0,84,-99.99,,,-99.99,,2013-01-18 13:33:00,
2013-01-18 08:43:00,24.0,20.0,-100.00,SW,230,7.0,10.0,84,-99.99,,,-99.99,,2013-01-18 13:43:00,
2013-01-18 08:53:00,24.0,20.0,-100.00,SSW,200,7.0,10.0,83,-99.99,,,-99.99,,2013-01-18 13:53:00,
2013-01-18 09:03:00,24.0,20.0,-100.00,SW,220,7.0,11.0,82,-99.99,,,-99.99,,2013-01-18 14:03:00,
2013-01-18 09:12:00,24.0,19.0,-100.00,SSW,205,6.0,9.0,81,-99.99,,,-99.99,,2013-01-18 14:12:00,
2013-01-18 09:23:00,24.0,19.0,-100.00,South,185,7.0,10.0,80,-99.99,,,-99.99,,2013-01-18 14:23:00,
2013-01-18 09:34:00,24.0,19.0,-100.00,SSW,205,7.0,9.0,79,-99.99,,,-99.99,,2013-01-18 14:34:00,
2013-01-18 09:42:00,25.0,19.0,-100.00,SSW,210,6.0,11.0,78,-99.99,,,-99.99,,2013-01-18 14:42:00,
2013-01-18 09:53:00,25.0,19.0,-100.00,South,190,6.0,9.0,77,-99.99,,,-99.99,,2013-01-18 14:53:00,
2013-01-18 10:03:00,25.0,19.0,-100.00,SSW,195,4.0,10.0,75,-99.99,,,-99.99,,2013-01-18 15:03:00,
2013-01-18 10:13:00,26.0,19.0,-100.00,SW,230,7.0,11.0,75,-99.99,,,-99.99,,2013-01-18 15:13:00,
2013-01-18 10:23:00,26.0,19.0,-100.00,SSW,210,7.0,11.0,74,-99.99,,,-99.99,,2013-01-18 15:23:00,
2013-01-18 10:34:00,26.0,19.0,-100.00,SW,235,8.0,11.0,74,-99.99,,,-99.99,,2013-01-18 15:34:00,
2013-01-18 10:43:00,27.0,20.0,-100.00,WSW,240,7.0,13.0,74,-99.99,,,-99.99,,2013-01-18 15:43:00,
2013-01-18 10:53:00,28.0,20.0,-100.00,SW,220,6.0,12.0,72,-99.99,,,-99.99,,2013-01-18 15:53:00,
2013-01-18 11:03:00,29.0,21.0,-100.00,SW,235,7.0,12.0,71,-99.99,,,-99.99,,2013-01-18 16:03:00,
2013-01-18 11:12:00,29.0,21.0,-100.00,SW,230,6.0,11.0,70,-99.99,,,-99.99,,2013-01-18 16:12:00,
2013-01-18 11:23:00,29.0,20.0,-100.00,SSW,200,12.0,15.0,67,-99.99,,,-99.99,,2013-01-18 16:23:00,
2013-01-18 11:33:00,30.0,20.0,-100.00,SW,230,6.0,14.0,65,-99.99,,,-99.99,,2013-01-18 16:33:00,
2013-01-18 11:43:00,30.0,20.0,-100.00,SW,220,6.0,13.0,65,-99.99,,,-99.99,,2013-01-18 16:43:00,
2013-01-18 11:52:00,31.0,20.0,-100.00,South,190,11.0,14.0,63,-99.99,,,-99.99,,2013-01-18 16:52:00,
2013-01-18 12:03:00,32.0,20.0,-100.00,SW,220,9.0,14.0,62,-99.99,,,-99.99,,2013-01-18 17:03:00,
2013-01-18 12:13:00,32.0,20.0,-100.00,SSW,205,7.0,11.0,61,-99.99,,,-99.99,,2013-01-18 17:13:00,
2013-01-18 12:23:00,32.0,20.0,-100.00,SW,215,10.0,17.0,60,-99.99,,,-99.99,,2013-01-18 17:23:00,
2013-01-18 12:33:00,32.0,20.0,-100.00,SSW,200,11.0,18.0,60,-99.99,,,-99.99,,2013-01-18 17:33:00,
2013-01-18 12:43:00,33.0,20.0,-100.00,SSW,195,14.0,19.0,60,-99.99,,,-99.99,,2013-01-18 17:43:00,
2013-01-18 12:53:00,33.0,20.0,-100.00,SSW,205,13.0,17.0,60,-99.99,,,-99.99,,2013-01-18 17:53:00,
2013-01-18 13:03:00,33.0,20.0,-100.00,SSW,205,14.0,17.0,59,-99.99,,,-99.99,,2013-01-18 18:03:00,
2013-01-18 13:13:00,34.0,21.0,-100.00,South,185,12.0,16.0,58,-99.99,,,-99.99,,2013-01-18 18:13:00,
2013-01-18 13:23:00,34.0,20.0,-100.00,SSW,205,8.0,14.0,58,-99.99,,,-99.99,,2013-01-18 18:23:00,
2013-01-18 13:33:00,34.0,20.0,-100.00,SSW,200,12.0,17.0,57,-99.99,,,-99.99,,2013-01-18 18:33:00,
2013-01-18 13:43:00,35.0,21.0,-100.00,SW,215,9.0,16.0,56,-99.99,,,-99.99,,2013-01-18 18:43:00,
2013-01-18 13:52:00,34.0,20.0,-100.00,South,185,9.0,17.0,57,-99.99,,,-99.99,,2013-01-18 18:52:00,
2013-01-18 14:03:00,35.0,21.0,-100.00,SSW,200,9.0,13.0,56,-99.99,,,-99.99,,2013-01-18 19:03:00,
2013-01-18 14:13:00,34.0,21.0,-100.00,SSW,195,8.0,17.0,57,-99.99,,,-99.99,,2013-01-18 19:13:00,
2013-01-18 14:23:00,34.0,20.0,-100.00,SSW,195,8.0,15.0,56,-99.99,,,-99.99,,2013-01-18 19:23:00,
2013-01-18 14:33:00,34.0,20.0,-100.00,South,170,6.0,16.0,57,-99.99,,,-99.99,,2013-01-18 19:33:00,
2013-01-18 14:43:00,33.0,20.0,-100.00,South,185,6.0,12.0,57,-99.99,,,-99.99,,2013-01-18 19:43:00,
2013-01-18 14:52:00,34.0,20.0,-100.00,South,185,6.0,12.0,57,-99.99,,,-99.99,,2013-01-18 19:52:00,
2013-01-18 15:03:00,34.0,20.0,-100.00,South,180,5.0,14.0,57,-99.99,,,-99.99,,2013-01-18 20:03:00,
2013-01-18 15:13:00,34.0,20.0,-100.00,South,180,9.0,19.0,57,-99.99,,,-99.99,,2013-01-18 20:13:00,
2013-01-18 15:23:00,34.0,21.0,-100.00,SSE,150,4.0,13.0,57,-99.99,,,-99.99,,2013-01-18 20:23:00,
2013-01-18 15:33:00,35.0,21.0,-100.00,South,180,9.0,17.0,56,-99.99,,,-99.99,,2013-01-18 20:33:00,
2013-01-18 15:43:00,35.0,21.0,-100.00,SSW,195,7.0,12.0,55,-99.99,,,-99.99,,2013-01-18 20:43:00,
2013-01-18 15:53:00,35.0,21.0,-100.00,South,190,9.0,16.0,54,-99.99,,,-99.99,,2013-01-18 20:53:00,
2013-01-18 16:03:00,35.0,21.0,-100.00,South,190,12.0,20.0,54,-99.99,,,-99.99,,2013-01-18 21:03:00,
2013-01-18 16:13:00,35.0,21.0,-100.00,South,175,8.0,18.0,54,-99.99,,,-99.99,,2013-01-18 21:13:00,
2013-01-18 16:23:00,36.0,21.0,-100.00,South,185,6.0,16.0,55,-99.99,,,-99.99,,2013-01-18 21:23:00,
2013-01-18 16:33:00,36.0,21.0,-100.00,South,185,6.0,16.0,55,-99.99,,,-99.99,,2013-01-18 21:33:00,
2013-01-18 16:43:00,35.0,21.0,-100.00,South,190,8.0,20.0,55,-99.99,,,-99.99,,2013-01-18 21:43:00,
2013-01-18 16:52:00,35.0,21.0,-100.00,South,175,6.0,22.0,55,-99.99,,,-99.99,,2013-01-18 21:52:00,
2013-01-18 17:03:00,35.0,20.0,-100.00,South,185,6.0,17.0,55,-99.99,,,-99.99,,2013-01-18 22:03:00,
2013-01-18 17:12:00,34.0,21.0,-100.00,South,185,13.0,20.0,56,-99.99,,,-99.99,,2013-01-18 22:12:00,
2013-01-18 17:23:00,34.0,21.0,-100.00,South,185,6.0,15.0,57,-99.99,,,-99.99,,2013-01-18 22:23:00,
2013-01-18 17:33:00,34.0,21.0,-100.00,South,185,9.0,15.0,57,-99.99,,,-99.99,,2013-01-18 22:33:00,
2013-01-18 17:43:00,33.0,20.0,-100.00,South,185,6.0,19.0,58,-99.99,,,-99.99,,2013-01-18 22:43:00,
2013-01-18 17:52:00,33.0,20.0,-100.00,South,190,6.0,12.0,59,-99.99,,,-99.99,,2013-01-18 22:52:00,
2013-01-18 18:03:00,33.0,20.0,-100.00,South,185,4.0,14.0,59,-99.99,,,-99.99,,2013-01-18 23:03:00,
2013-01-18 18:12:00,33.0,20.0,-100.00,South,190,6.0,16.0,59,-99.99,,,-99.99,,2013-01-18 23:12:00,
2013-01-18 18:22:00,33.0,20.0,-100.00,SE,130,3.0,9.0,59,-99.99,,,-99.99,,2013-01-18 23:22:00,
2013-01-18 18:33:00,32.0,20.0,-100.00,East,80,3.0,12.0,60,-99.99,,,-99.99,,2013-01-18 23:33:00,
2013-01-18 18:43:00,33.0,20.0,-100.00,SSE,155,2.0,16.0,60,-99.99,,,-99.99,,2013-01-18 23:43:00,
2013-01-18 18:52:00,33.0,20.0,-100.00,East,100,4.0,16.0,60,-99.99,,,-99.99,,2013-01-18 23:52:00,
2013-01-18 19:02:00,33.0,20.0,-100.00,South,170,9.0,15.0,60,-99.99,,,-99.99,,2013-01-19 00:02:00,
2013-01-18 19:12:00,33.0,21.0,-100.00,ESE,105,3.0,21.0,61,-99.99,,,-99.99,,2013-01-19 00:12:00,
2013-01-18 19:23:00,33.0,21.0,-100.00,SE,130,4.0,13.0,61,-99.99,,,-99.99,,2013-01-19 00:23:00,
2013-01-18 19:33:00,33.0,21.0,-100.00,SSE,155,9.0,19.0,62,-99.99,,,-99.99,,2013-01-19 00:33:00,
2013-01-18 19:43:00,32.0,21.0,-100.00,South,180,6.0,17.0,62,-99.99,,,-99.99,,2013-01-19 00:43:00,
2013-01-18 19:53:00,33.0,22.0,-100.00,SSE,165,6.0,14.0,63,-99.99,,,-99.99,,2013-01-19 00:53:00,
2013-01-18 20:02:00,32.0,22.0,-100.00,SSE,160,6.0,12.0,64,-99.99,,,-99.99,,2013-01-19 01:02:00,
2013-01-18 20:12:00,32.0,22.0,-100.00,South,175,7.0,17.0,64,-99.99,,,-99.99,,2013-01-19 01:12:00,
2013-01-18 20:22:00,32.0,22.0,-100.00,South,175,7.0,17.0,64,-99.99,,,-99.99,,2013-01-19 01:22:00,
2013-01-18 20:33:00,33.0,22.0,-100.00,South,185,9.0,16.0,65,-99.99,,,-99.99,,2013-01-19 01:33:00,
2013-01-18 20:42:00,33.0,22.0,-100.00,South,175,5.0,17.0,65,-99.99,,,-99.99,,2013-01-19 01:42:00,
2013-01-18 20:52:00,33.0,22.0,-100.00,SSE,165,9.0,17.0,65,-99.99,,,-99.99,,2013-01-19 01:52:00,
2013-01-18 21:03:00,33.0,22.0,-100.00,South,185,7.0,21.0,65,-99.99,,,-99.99,,2013-01-19 02:03:00,
2013-01-18 21:12:00,33.0,23.0,-100.00,SSE,165,10.0,24.0,65,-99.99,,,-99.99,,2013-01-19 02:12:00,
2013-01-18 21:23:00,33.0,22.0,-100.00,South,185,7.0,22.0,64,-99.99,,,-99.99,,2013-01-19 02:23:00,
2013-01-18 21:33:00,33.0,23.0,-100.00,South,185,13.0,25.0,64,-99.99,,,-99.99,,2013-01-19 02:33:00,
2013-01-18 21:43:00,34.0,23.0,-100.00,South,185,12.0,25.0,63,-99.99,,,-99.99,,2013-01-19 02:43:00,
2013-01-18 21:53:00,34.0,23.0,-100.00,SSE,150,10.0,27.0,62,-99.99,,,-99.99,,2013-01-19 02:53:00,
2013-01-18 22:03:00,34.0,23.0,-100.00,South,190,17.0,31.0,62,-99.99,,,-99.99,,2013-01-19 03:03:00,
2013-01-18 22:12:00,35.0,23.0,-100.00,South,190,15.0,28.0,61,-99.99,,,-99.99,,2013-01-19 03:12:00,
2013-01-18 22:22:00,35.0,22.0,-100.00,South,185,13.0,24.0,60,-99.99,,,-99.99,,2013-01-19 03:22:00,
2013-01-18 22:33:00,35.0,23.0,-100.00,South,170,9.0,22.0,60,-99.99,,,-99.99,,2013-01-19 03:33:00,
2013-01-18 22:43:00,35.0,23.0,-100.00,South,180,17.0,27.0,60,-99.99,,,-99.99,,2013-01-19 03:43:00,
2013-01-18 22:52:00,35.0,23.0,-100.00,South,190,17.0,29.0,59,-99.99,,,-99.99,,2013-01-19 03:52:00,
2013-01-18 23:02:00,36.0,23.0,-100.00,South,180,19.0,32.0,58,-99.99,,,-99.99,,2013-01-19 04:02:00,
2013-01-18 23:12:00,36.0,23.0,-100.00,South,190,19.0,34.0,57,-99.99,,,-99.99,,2013-01-19 04:12:00,
2013-01-18 23:22:00,36.0,23.0,-100.00,South,190,13.0,37.0,57,-99.99,,,-99.99,,2013-01-19 04:22:00,
2013-01-18 23:33:00,37.0,23.0,-100.00,South,190,19.0,34.0,56,-99.99,,,-99.99,,2013-01-19 04:33:00,
2013-01-18 23:42:00,37.0,23.0,-100.00,South,190,19.0,34.0,56,-99.99,,,-99.99,,2013-01-19 04:42:00,
2013-01-18 23:52:00,37.0,23.0,-100.00,South,190,21.0,33.0,56,-99.99,,,-99.99,,2013-01-19 04:52:00,